FW0372 Weather Reports


Display with metric or nautical units.
time (UTC)temp
F
wind
direction
speed
MPH
gust
MPH
rain 1hr
in
rain 24hr
in
rain mn
in
humidity
%
barometer
mb
20210924063337 50 10 0.0 0.0 0.00 0.00 0.00 67 1017.4
20210924062837 50 10 0.0 0.0 0.00 0.00 0.00 67 1017.5
20210924061844 51 10 0.0 0.0 0.00 0.00 0.00 67 1017.6
20210924060830 51 10 0.0 0.0 0.00 0.00 0.00 66 1017.5
20210924055834 51 10 0.0 0.0 0.00 0.00 0.00 66 1017.4
20210924054840 52 10 0.0 0.0 0.00 0.00 0.00 65 1017.4
20210924053837 52 10 0.0 0.0 0.00 0.00 0.00 65 1017.3
20210924052843 52 10 0.0 0.0 0.00 0.00 0.00 64 1017.3
20210924051830 53 10 0.0 0.0 0.00 0.00 0.00 63 1017.4
20210924050832 53 10 0.0 0.0 0.00 0.00 0.00 62 1017.3
20210924045856 53 10 0.0 0.0 0.00 0.00 0.00 61 1017.5
20210924045346 53 10 0.0 0.0 0.00 0.00 0.00 61 1017.5
20210924044337 54 10 0.0 0.0 0.00 0.00 0.00 60 1017.6
20210924043340 54 10 0.0 1.0 0.00 0.00 0.00 61 1017.4
20210924042344 55 10 0.0 0.0 0.00 0.00 0.00 60 1017.5
20210924041331 55 11 0.0 0.0 0.00 0.00 0.00 58 1017.5
20210924040335 56 10 0.0 0.0 0.00 0.00 0.00 57 1017.5
20210924035339 56 10 0.0 0.0 0.00 0.00 0.00 55 1017.6
20210924034341 57 10 0.0 0.0 0.00 0.00 0.00 55 1017.7
20210924033828 57 10 0.0 0.0 0.00 0.00 0.00 54 1017.6
20210924032836 58 10 0.0 0.0 0.00 0.00 0.00 54 1017.6
20210924031846 58 10 0.0 0.0 0.00 0.00 0.00 52 1017.5
20210924030828 58 11 0.0 0.0 0.00 0.00 0.00 52 1017.2
20210924025835 59 10 0.0 0.0 0.00 0.00 0.00 51 1017.3
20210924024845 59 11 0.0 0.0 0.00 0.00 0.00 50 1017.3
20210924023843 60 10 0.0 0.0 0.00 0.00 0.00 49 1017.3
20210924022836 60 11 0.0 1.0 0.00 0.00 0.00 48 1017.4
20210924021835 61 10 0.0 0.0 0.00 0.00 0.00 46 1017.2
20210924020843 62 10 0.0 0.0 0.00 0.00 0.00 44 1017.2
20210924015837 63 10 0.0 0.0 0.00 0.00 0.00 42 1017.4
20210924014834 64 10 0.0 0.0 0.00 0.00 0.00 40 1017.2
20210924013837 64 10 0.0 0.0 0.00 0.00 0.00 39 1017.1
20210924012843 65 10 0.0 0.0 0.00 0.00 0.00 39 1017.0
20210924011841 66 10 0.0 0.0 0.00 0.00 0.00 38 1016.8
20210924011327 67 10 0.0 0.0 0.00 0.00 0.00 35 1016.8
20210924010329 68 10 0.0 0.0 0.00 0.00 0.00 34 1016.9
20210924005335 69 10 0.0 0.0 0.00 0.00 0.00 34 1016.8
20210924004339 70 10 0.0 0.0 0.00 0.00 0.00 32 1016.8
20210924003346 72 10 0.0 0.0 0.00 0.00 0.00 28 1016.7
20210924002840 72 10 0.0 1.0 0.00 0.00 0.00 27 1016.8
20210924001843 74 10 0.0 0.0 0.00 0.00 0.00 27 1016.9
20210924001332 75 10 0.0 0.0 0.00 0.00 0.00 24 1016.8
20210924000334 76 10 0.0 0.0 0.00 0.00 0.00 21 1016.9
20210923235832 77 10 0.0 0.0 0.00 0.00 0.00 20 1016.8
20210923234844 77 10 0.0 1.0 0.00 0.00 0.00 19 1017.0
20210923234337 78 10 0.0 1.0 0.00 0.00 0.00 20 1017.1
20210923233342 79 18 0.0 3.0 0.00 0.00 0.00 19 1017.2
20210923232350 80 55 0.0 2.0 0.00 0.00 0.00 18 1017.1
20210923231826 80 329 0.0 2.0 0.00 0.00 0.00 18 1017.2
20210923230831 81 329 0.0 3.0 0.00 0.00 0.00 19 1017.3
20210923225835 81 347 0.0 4.0 0.00 0.00 0.00 18 1017.3
20210923224839 81 53 1.0 5.0 0.00 0.00 0.00 17 1017.3
20210923223841 81 30 0.0 2.0 0.00 0.00 0.00 17 1017.4
20210923222848 82 332 1.0 5.0 0.00 0.00 0.00 16 1017.5
20210923222344 82 327 1.0 6.0 0.00 0.00 0.00 17 1017.5
20210923221830 82 355 1.0 3.0 0.00 0.00 0.00 17 1017.5
20210923220833 82 227 1.0 6.0 0.00 0.00 0.00 16 1017.4
20210923215846 83 55 1.0 4.0 0.00 0.00 0.00 16 1017.3
20210923214846 83 160 1.0 3.0 0.00 0.00 0.00 16 1017.5
20210923214326 82 355 1.0 5.0 0.00 0.00 0.00 18 1017.4
20210923213335 82 36 1.0 7.0 0.00 0.00 0.00 16 1017.5
20210923212342 83 355 1.0 6.0 0.00 0.00 0.00 16 1017.5
20210923211346 83 198 1.0 5.0 0.00 0.00 0.00 15 1017.7
20210923210826 83 248 2.0 5.0 0.00 0.00 0.00 16 1017.8
20210923205833 83 83 0.0 4.0 0.00 0.00 0.00 15 1017.8
20210923204846 83 351 2.0 7.0 0.00 0.00 0.00 15 1017.8
20210923203844 83 24 1.0 5.0 0.00 0.00 0.00 14 1017.9
20210923202848 83 245 3.0 10.0 0.00 0.00 0.00 14 1017.9
20210923202330 83 14 1.0 4.0 0.00 0.00 0.00 15 1018.0
20210923201333 82 250 2.0 4.0 0.00 0.00 0.00 15 1018.1
20210923200336 81 173 1.0 7.0 0.00 0.00 0.00 17 1018.1
20210923195342 82 238 4.0 5.0 0.00 0.00 0.00 16 1018.2
20210923194333 81 59 1.0 6.0 0.00 0.00 0.00 17 1018.4
20210923193341 81 205 3.0 7.0 0.00 0.00 0.00 16 1018.5
20210923192834 81 216 1.0 7.0 0.00 0.00 0.00 16 1018.7
20210923191843 81 205 2.0 8.0 0.00 0.00 0.00 15 1018.8
20210923190849 80 309 1.0 6.0 0.00 0.00 0.00 17 1019.0
20210923190325 81 178 2.0 6.0 0.00 0.00 0.00 15 1018.9
20210923184836 81 247 2.0 5.0 0.00 0.00 0.00 15 1019.3
20210923183842 80 265 1.0 5.0 0.00 0.00 0.00 16 1019.5
20210923182844 80 178 1.0 10.0 0.00 0.00 0.00 17 1019.6
20210923181832 80 360 2.0 9.0 0.00 0.00 0.00 17 1019.8
20210923180840 80 336 1.0 6.0 0.00 0.00 0.00 17 1020.0
20210923180337 80 219 2.0 8.0 0.00 0.00 0.00 18 1020.1
20210923175348 79 236 1.0 6.0 0.00 0.00 0.00 20 1020.1
20210923174827 79 236 3.0 8.0 0.00 0.00 0.00 19 1020.1
20210923173834 79 169 3.0 7.0 0.00 0.00 0.00 19 1020.1
20210923172841 79 237 2.0 8.0 0.00 0.00 0.00 20 1020.3
20210923171335 79 219 2.0 5.0 0.00 0.00 0.00 20 1020.5
20210923170341 79 96 1.0 4.0 0.00 0.00 0.00 21 1020.7
20210923165329 78 263 1.0 4.0 0.00 0.00 0.00 22 1020.5
20210923164334 77 248 1.0 3.0 0.00 0.00 0.00 25 1020.5
20210923163347 76 211 2.0 5.0 0.00 0.00 0.00 24 1020.7
20210923162342 76 212 0.0 4.0 0.00 0.00 0.00 26 1020.6
20210923161343 75 178 1.0 4.0 0.00 0.00 0.00 32 1020.6
20210923160338 74 107 1.0 4.0 0.00 0.00 0.00 33 1020.9
20210923155346 73 17 1.0 5.0 0.00 0.00 0.00 36 1020.8
20210923154330 73 309 0.0 6.0 0.00 0.00 0.00 35 1020.8
20210923153333 72 144 1.0 5.0 0.00 0.00 0.00 36 1020.7
20210923152343 71 123 2.0 6.0 0.00 0.00 0.00 37 1020.7
20210923151344 69 251 1.0 3.0 0.00 0.00 0.00 39 1020.6
20210923150330 67 355 0.0 4.0 0.00 0.00 0.00 42 1020.4
20210923145336 65 117 1.0 3.0 0.00 0.00 0.00 46 1020.6
20210923144338 63 168 0.0 2.0 0.00 0.00 0.00 50 1020.5
20210923143348 61 317 0.0 2.0 0.00 0.00 0.00 55 1020.4
20210923142828 60 343 0.0 2.0 0.00 0.00 0.00 56 1020.5
20210923141834 57 343 0.0 2.0 0.00 0.00 0.00 60 1020.5
20210923140839 55 343 0.0 3.0 0.00 0.00 0.00 62 1020.3
20210923135841 52 42 0.0 1.0 0.00 0.00 0.00 64 1020.4
20210923134849 50 42 0.0 1.0 0.00 0.00 0.00 68 1020.4
20210923134327 50 42 0.0 0.0 0.00 0.00 0.00 70 1020.6
20210923133345 49 42 0.0 1.0 0.00 0.00 0.00 71 1020.7
20210923132342 47 42 0.0 1.0 0.00 0.00 0.00 69 1020.5
20210923131825 47 42 0.0 0.0 0.00 0.00 0.00 69 1020.5
20210923130833 46 42 0.0 0.0 0.00 0.00 0.00 68 1020.5
20210923125836 46 42 0.0 0.0 0.00 0.00 0.00 68 1020.5
20210923124841 46 42 0.0 0.0 0.00 0.00 0.00 68 1020.5
20210923123848 46 42 0.0 0.0 0.00 0.00 0.00 67 1020.4
20210923123324 46 42 0.0 0.0 0.00 0.00 0.00 67 1020.3
20210923122333 46 42 0.0 0.0 0.00 0.00 0.00 67 1020.4
20210923121344 46 42 0.0 0.0 0.00 0.00 0.00 67 1020.3
20210923120824 46 42 0.0 0.0 0.00 0.00 0.00 67 1020.4
20210923115830 46 42 0.0 0.0 0.00 0.00 0.00 67 1020.2
20210923114840 46 42 0.0 1.0 0.00 0.00 0.00 67 1020.2
20210923113842 46 42 0.0 0.0 0.00 0.00 0.00 67 1020.2
20210923112844 46 42 0.0 0.0 0.00 0.00 0.00 67 1020.4
20210923111831 46 42 0.0 0.0 0.00 0.00 0.00 67 1020.3
20210923110341 46 42 0.0 0.0 0.00 0.00 0.00 67 1020.1
20210923105345 47 42 0.0 0.0 0.00 0.00 0.00 67 1020.2
20210923104330 47 42 0.0 0.0 0.00 0.00 0.00 66 1020.3
20210923103335 46 42 0.0 0.0 0.00 0.00 0.00 67 1020.3
20210923102344 46 42 0.0 0.0 0.00 0.00 0.00 67 1020.3
20210923101344 46 42 0.0 0.0 0.00 0.00 0.00 67 1020.3
20210923100828 46 42 0.0 0.0 0.00 0.00 0.00 67 1020.3
20210923095951 46 42 0.0 0.0 0.00 0.00 0.00 67 1020.4
20210923095341 46 42 0.0 0.0 0.00 0.00 0.00 67 1020.3
20210923094347 46 42 0.0 0.0 0.00 0.00 0.00 67 1020.4
20210923093350 46 42 0.0 0.0 0.00 0.00 0.00 67 1020.5
20210923092400 47 42 0.0 0.0 0.00 0.00 0.00 67 1020.5
20210923091342 47 42 0.0 0.0 0.00 0.00 0.00 67 1020.5
20210923090350 47 42 0.0 0.0 0.00 0.00 0.00 67 1020.5
20210923085349 47 42 0.0 0.0 0.00 0.00 0.00 67 1020.6
20210923084349 47 42 0.0 0.0 0.00 0.00 0.00 67 1020.6
20210923083400 47 42 0.0 0.0 0.00 0.00 0.00 68 1020.6
20210923082359 48 42 0.0 0.0 0.00 0.00 0.00 67 1020.7
20210923081339 48 42 0.0 0.0 0.00 0.00 0.00 66 1020.8
20210923080357 49 42 0.0 0.0 0.00 0.00 0.00 66 1020.8
20210923075355 49 42 0.0 0.0 0.00 0.00 0.00 65 1020.9
20210923074354 49 42 0.0 0.0 0.00 0.00 0.00 64 1020.7
20210923073358 50 42 0.0 0.0 0.00 0.00 0.00 63 1020.6
20210923072856 50 42 0.0 0.0 0.00 0.00 0.00 62 1020.6
20210923072340 50 42 0.0 0.0 0.00 0.00 0.00 62 1020.5
20210923071352 51 42 0.0 0.0 0.00 0.00 0.00 60 1020.5
20210923070357 52 42 0.0 0.0 0.00 0.00 0.00 60 1020.4
20210923065340 52 42 0.0 0.0 0.00 0.00 0.00 59 1020.3
20210923064351 53 42 0.0 0.0 0.00 0.00 0.00 58 1020.3